SL-12 R/B(AUX MOTOR), 28919

Orbit data source: Space-Track

SL-12 R/B(AUX MOTOR), 28919 is space debris in HEO originally from a launch on Sun, 25 Dec 2005 UTC launched from the Tyuratam Missile And Space Complex (TTMTR). Debris objects in space refer to the collection of defunct objects orbiting the Earth. Examples of debris include non-operational satellites, rocket bodies, and fragments generated from explosions, collisions, or faulty payload assembly.

Loading next visibility...
Identifier
28919, 2005-050E
Orbit
HEO
Country
Flag of CISCIS
Related business
Manufacturer
RKKE
Mission
Spacecraft
Bus & Motor
SOZ, Unknown motor
Mass
56 kg wet, 56 kg dry
Launch date (UTC)
2005-12-25 (20 years ago)
Launch vehicle
Unknown
Launch site
Tyuratam Missile And Space Complex (TTMTR)
Object type
Payload
Rocket body
Debris
Shape & HBR
Cyl, 0.6 m
Radar Cross Section
0.660 m², Medium (>0.1 m² and < 1m²)

Expand to show TLE details & history
Last TLE update: 1 day ago

TLE from 1 day ago
0 SL-12 R/B(AUX MOTOR)
1 28919U 05050E   25259.99528312 -.00000035  00000-0  22277-3 0  9993
2 28919  64.9208 161.9838 5741884 208.4681 102.2262  4.24183602304756
Epoch: 2025-09-16T23:53Z
TLE epoch observation values (Epoch: 2025-09-16T23:53:12.461Z)
Latitude
-0.00006°
Longitude
167.519°
Altitude
15,453.542 km
Speed
3.434 km/s
True Right ascension
10h 47m 59s
True Declination
0° 00' 00"
Sunlit
Object was in daylight at epoch
Visualization orbit readout
Latitude
Unknown
Longitude
Unknown
Altitude
Unknown
Speed
Unknown
Apparent Right ascension
Unknown
Apparent Declination
Unknown
Sunlit
N/A
Visualization observer readout
Local Sidereal Time
20:37:14
Azimuth
Unknown
Elevation
Unknown
Doppler factor
Unknown
Orbital elements
Apogee altitude
18,996.041 km
Perigee altitude
485.476 km
Semi-major axis
16,118.895 km
Eccentricity
0.57419
Inclination
64.9208°
RAAN
161.9838°
Arg. of periapsis
208.4681°
True anomaly
151.59975°
Mean anomaly
102.2262°
Eccentric anomaly
128.11125°
Mean motion
1.06057 °/min
Orbital period
339.44 mins
BSTAR
0.00022277
Loading maneuver chart data...
Computing Atmospheric mass density...
Loading historical data...
Loading historical data...
Loading historical data...
Loading historical data...
Loading historical data...
Loading historical data...
Loading historical data...

Documentation

Showing up to 5 results
|